Hugo, OK

4:36 AM CST on December 14, 2017 (GMT -0600)
Stamper Municipal

Weather History for KHHW - September, 2013

Change the Weather History Date:

Monday, September 16, 2013

  Actual Average Record
Temperature  
Mean Temperature 86 °F -  
Max Temperature 99 °F 87 °F 99 °F (2013)
Min Temperature 73 °F 63 °F 66 °F (2017)
Cooling Degree Days 21    
Growing Degree Days 36 (Base 50)    
Moisture  
Dew Point 65 °F    
Average Humidity 52    
Maximum Humidity 78    
Minimum Humidity 32    
Precipitation  
Precipitation 0.00 in - - ()
Sea Level Pressure  
Sea Level Pressure 30.06 in    
Wind  
Wind Speed 3 mph (East)    
Max Wind Speed 10 mph    
Max Gust Speed 16 mph    
Visibility 10 miles    
Events      
Averages and records for this station are not official NWS values.
T = Trace of Precipitation, MM = Missing Value Source: NWS Daily Summary

Daily Weather History Graph

Daily Weather History Graph

Search for Another Location

Airport or City:

Trip Planner

Search our weather history database for the weather conditions in past years. The results will help you decide how hot, cold, wet, or windy it might be!

Date:

Astronomy

Sep. 16, 2013 Rise Set
Actual Time 7:06 AM CDT 7:26 PM CDT
Civil Twilight 6:41 AM CDT 7:51 PM CDT
Nautical Twilight 6:11 AM CDT 8:21 PM CDT
Astronomical Twilight 5:42 AM CDT 8:50 PM CDT
Moon 5:31 PM CDT (9/16) 4:00 AM CDT (9/16)
Length of Visible Light 13h 10m
Length of Day
12h 20m
Waxing Gibbous, 90% of the Moon is Illuminated
Sep 16
Waxing Gibbous
Sep 19
Full
Sep 26
Last Quarter
Oct 4
New
Oct 11
First Quarter

Hourly Weather History & Observations

Time (CDT) Temp. Heat Index Dew Point Humidity Pressure Visibility Wind Dir Wind Speed Gust Speed Precip Events Conditions
12:15 AM 84.4 °F 86.6 °F 66.2 °F 54% 30.05 in 10.0 mi Calm Calm - N/A   Clear
12:35 AM 83.3 °F 85.7 °F 66.4 °F 57% 30.05 in 10.0 mi SE 4.6 mph - N/A   Clear
12:55 AM 82.0 °F 84.3 °F 66.4 °F 59% 30.05 in 10.0 mi SE 3.5 mph - N/A   Clear
1:15 AM 81.7 °F 84.0 °F 66.6 °F 60% 30.05 in 10.0 mi SE 3.5 mph - N/A   Clear
1:35 AM 80.8 °F 83.1 °F 66.6 °F 62% 30.05 in 10.0 mi SE 3.5 mph - N/A   Clear
1:55 AM 80.4 °F 82.7 °F 66.6 °F 63% 30.05 in 10.0 mi SE 3.5 mph - N/A   Clear
2:15 AM 79.0 °F - 67.1 °F 67% 30.04 in 10.0 mi SE 3.5 mph - N/A   Clear
2:35 AM 78.4 °F - 67.1 °F 68% 30.04 in 10.0 mi Calm Calm - N/A   Clear
2:55 AM 77.4 °F - 67.5 °F 71% 30.04 in 10.0 mi SE 3.5 mph - N/A   Clear
3:15 AM 77.4 °F - 67.5 °F 71% 30.04 in 10.0 mi Calm Calm - N/A   Clear
3:35 AM 76.5 °F - 67.5 °F 74% 30.04 in 10.0 mi Calm Calm - N/A   Clear
3:55 AM 76.1 °F - 67.3 °F 74% 30.04 in 10.0 mi Calm Calm - N/A   Clear
4:15 AM 75.6 °F - 67.5 °F 76% 30.04 in 10.0 mi Calm Calm - N/A   Clear
4:35 AM 75.6 °F - 67.6 °F 76% 30.04 in 10.0 mi ESE 3.5 mph - N/A   Clear
4:55 AM 74.8 °F - 67.3 °F 77% 30.04 in 10.0 mi ESE 4.6 mph - N/A   Clear
5:15 AM 74.5 °F - 67.3 °F 78% 30.05 in 10.0 mi East 4.6 mph - N/A   Clear
5:35 AM 74.8 °F - 66.7 °F 76% 30.05 in 10.0 mi East 3.5 mph - N/A   Clear
5:55 AM 74.8 °F - 66.4 °F 75% 30.06 in 10.0 mi Calm Calm - N/A   Clear
6:15 AM 74.5 °F - 66.7 °F 77% 30.06 in 10.0 mi Calm Calm - N/A   Clear
6:35 AM 74.7 °F - 67.1 °F 77% 30.07 in 10.0 mi Calm Calm - N/A   Clear
6:55 AM 74.8 °F - 66.4 °F 75% 30.08 in 10.0 mi ENE 3.5 mph - N/A   Clear
7:15 AM 74.1 °F - 66.0 °F 76% 30.09 in 10.0 mi Calm Calm - N/A   Clear
7:35 AM 73.8 °F - 65.8 °F 76% 30.09 in 10.0 mi Calm Calm - N/A   Clear
7:55 AM 74.7 °F - 66.2 °F 75% 30.10 in 10.0 mi Calm Calm - N/A   Clear
8:15 AM 76.1 °F - 65.7 °F 70% 30.10 in 10.0 mi East 3.5 mph - N/A   Clear
8:35 AM 78.3 °F - 64.6 °F 63% 30.11 in 10.0 mi Calm Calm - N/A   Clear
8:55 AM 80.4 °F 81.6 °F 62.6 °F 54% 30.11 in 10.0 mi East 4.6 mph - N/A   Clear
9:15 AM 82.4 °F 83.0 °F 61.7 °F 49% 30.11 in 10.0 mi East 4.6 mph - N/A   Clear
9:35 AM 83.8 °F 84.3 °F 61.7 °F 47% 30.12 in 10.0 mi ESE 5.8 mph - N/A   Clear
9:55 AM 85.6 °F 85.9 °F 61.7 °F 44% 30.12 in 10.0 mi East 3.5 mph - N/A   Clear
10:15 AM 86.5 °F 87.3 °F 62.8 °F 45% 30.13 in 10.0 mi South 3.5 mph - N/A   Mostly Cloudy
10:55 AM 89.1 °F 90.6 °F 64.8 °F 44% 30.12 in 10.0 mi Calm Calm - N/A   Scattered Clouds
11:15 AM 90.5 °F 92.9 °F 65.7 °F 44% 30.12 in 10.0 mi Calm Calm - N/A   Clear
11:35 AM 91.4 °F 93.2 °F 64.8 °F 41% 30.12 in 10.0 mi Calm Calm - N/A   Scattered Clouds
11:55 AM 94.6 °F 98.3 °F 66.7 °F 40% 30.11 in 10.0 mi Calm Calm - N/A   Scattered Clouds
12:15 PM 92.8 °F 95.2 °F 65.5 °F 40% 30.12 in 10.0 mi North 8.1 mph - N/A   Overcast
12:35 PM 94.3 °F 97.7 °F 66.2 °F 40% 30.11 in 10.0 mi NE 6.9 mph - N/A   Mostly Cloudy
12:55 PM 92.3 °F 95.1 °F 66.2 °F 42% 30.11 in 10.0 mi NE 6.9 mph - N/A   Mostly Cloudy
1:15 PM 93.9 °F 97.0 °F 66.6 °F 40% 30.10 in 10.0 mi NNE 5.8 mph - N/A   Scattered Clouds
1:35 PM 94.6 °F 98.3 °F 67.1 °F 40% 30.09 in 10.0 mi Calm Calm - N/A   Clear
1:55 PM 94.8 °F 98.1 °F 66.4 °F 39% 30.07 in 10.0 mi Calm Calm - N/A   Clear
2:15 PM 96.8 °F 100.1 °F 65.8 °F 36% 30.06 in 10.0 mi North 5.8 mph - N/A   Clear
2:35 PM 97.2 °F 100.2 °F 64.9 °F 35% 30.05 in 10.0 mi East 6.9 mph - N/A   Clear
2:55 PM 97.3 °F 100.5 °F 65.3 °F 35% 30.05 in 10.0 mi NE 8.1 mph - N/A   Clear
3:15 PM 97.0 °F 99.9 °F 65.5 °F 35% 30.03 in 10.0 mi NE 6.9 mph - N/A   Clear
3:35 PM 97.7 °F 101.2 °F 65.8 °F 35% 30.03 in 10.0 mi ENE 8.1 mph - N/A   Clear
3:55 PM 99.1 °F 102.6 °F 65.1 °F 33% 30.02 in 10.0 mi ESE 5.8 mph - N/A   Clear
4:15 PM 97.9 °F 100.3 °F 64.4 °F 33% 30.01 in 10.0 mi East 6.9 mph 16.1 mph N/A   Clear
4:35 PM 97.3 °F 100.0 °F 64.6 °F 34% 30.01 in 10.0 mi East 4.6 mph - N/A   Clear
4:55 PM 97.9 °F 100.9 °F 65.3 °F 34% 30.00 in 10.0 mi ENE 10.4 mph - N/A   Clear
5:15 PM 97.3 °F 98.9 °F 63.3 °F 32% 30.00 in 10.0 mi ENE 9.2 mph - N/A   Clear
5:35 PM 96.4 °F 97.9 °F 63.3 °F 33% 30.00 in 10.0 mi East 9.2 mph - N/A   Clear
5:55 PM 96.1 °F 97.8 °F 63.1 °F 34% 30.00 in 10.0 mi East 5.8 mph - N/A   Clear
6:15 PM 95.7 °F 97.2 °F 63.0 °F 34% 30.00 in 10.0 mi East 9.2 mph - N/A   Clear
6:35 PM 95.0 °F 96.5 °F 63.1 °F 35% 30.00 in 10.0 mi East 8.1 mph 16.1 mph N/A   Clear
6:55 PM 94.3 °F 95.8 °F 63.5 °F 36% 30.00 in 10.0 mi East 8.1 mph - N/A   Clear
7:15 PM 93.2 °F 94.9 °F 64.0 °F 38% 30.01 in 10.0 mi East 8.1 mph - N/A   Clear
7:35 PM 91.9 °F 93.7 °F 64.4 °F 40% 30.02 in 10.0 mi East 4.6 mph - N/A   Clear
7:55 PM 90.9 °F 92.3 °F 64.4 °F 41% 30.03 in 10.0 mi East 4.6 mph - N/A   Clear
8:15 PM 90.0 °F 91.7 °F 64.8 °F 43% 30.03 in 10.0 mi East 4.6 mph - N/A   Clear
8:35 PM 87.8 °F 89.7 °F 65.3 °F 47% 30.04 in 10.0 mi Calm Calm - N/A   Clear
8:55 PM 86.9 °F 89.3 °F 66.0 °F 50% 30.04 in 10.0 mi ENE 4.6 mph - N/A   Scattered Clouds
9:15 PM 86.5 °F 88.4 °F 65.5 °F 49% 30.05 in 10.0 mi East 4.6 mph - N/A   Scattered Clouds
9:35 PM 86.2 °F 88.2 °F 65.3 °F 50% 30.05 in 10.0 mi ENE 3.5 mph - N/A   Scattered Clouds
9:55 PM 85.1 °F 86.9 °F 65.1 °F 51% 30.06 in 10.0 mi East 3.5 mph - N/A   Scattered Clouds
10:15 PM 85.5 °F 86.8 °F 64.6 °F 49% 30.06 in 10.0 mi East 4.6 mph - N/A   Clear
10:35 PM 85.1 °F 86.9 °F 65.1 °F 51% 30.06 in 10.0 mi East 3.5 mph - N/A   Clear
10:55 PM 83.8 °F 86.0 °F 65.8 °F 55% 30.06 in 10.0 mi East 4.6 mph - N/A   Clear
11:15 PM 83.3 °F 85.3 °F 65.7 °F 55% 30.06 in 10.0 mi ESE 5.8 mph - N/A   Clear
11:35 PM 83.3 °F 84.8 °F 64.6 °F 53% 30.06 in 10.0 mi ESE 6.9 mph - N/A   Clear
11:55 PM 84.4 °F 85.4 °F 63.1 °F 49% 30.07 in 10.0 mi ESE 8.1 mph - N/A   Clear